默认 日期 大小 文件数 浏览量 最新下载 xml
10 28磁力链接相关资源由用户搜索指令自动获取,结果来源于网络,本站不存储任何资料,亦不承担任何责任,请于24小时内删除,搜索到13174个磁力,显示前4000条数据,用时37ms。
    ... .org.txt": 86, "aunt.19.10.28.abi.pov.jerk.off.instruction ...
创建时间: 2019-12-08 12:19:06 大小:975.38 MB 文件数量:11 热度:9 最近下载:2025-02-22 01:38:02
    {"Donate.url": 127, "Download 720p & 1080p HEVC porn [PornRips.to].url": 110, "HotGuysFuck.19.10.28.Brad.Ranger.And.Kristen.Wolf.XXX.720p.HEVC.x265.PRT.mp4": 229346530}
创建时间: 2019-12-08 16:15:07 大小:218.72 MB 文件数量:3 热度:9 最近下载:2025-04-01 03:49:02
    {"RARBG.txt": 30, "RARBG_DO_NOT_MIRROR.exe": 99, "ALSScan.19.10.28.Emma.Starletto.Jam.Session.BTS.XXX.SD.MP4-KLEENEX.mp4": 212256243}
创建时间: 2019-12-08 17:37:07 大小:202.42 MB 文件数量:3 热度:6 最近下载:2025-01-26 18:56:13
    ... .org.txt": 86, "alsscan.19.10.28.emma.starletto.jam.session.bts ... .4k.mp4": 3775176818, "alsscan.19.10.28.emma.starletto.jam.session.bts ...
创建时间: 2019-12-08 19:18:48 大小:3.59 GB 文件数量:13 热度:26 最近下载:2025-07-13 21:22:03
    ... .st5": 276, "68-10-28 Corea-McL-Holland-DeJ_NY.txt ... "Corea-McL-Holland-DeJ_NY--1968-10-28_T01.flac": 52325202, "Corea ... -McL-Holland-DeJ_NY--1968-10-28_T02.flac": 47948763, "Corea ... , McLaughlin, Holland & DeJohnette - 1968-10-28 - New York, NY.md5": 482}
创建时间: 2019-12-09 00:21:23 大小:159.93 MB 文件数量:8 热度:6 最近下载:2024-12-28 09:56:01
    {"ieva.nfo": 2102, "RARBG.txt": 30, "file_id.diz": 389, "kko_0001.jpg": 1201384, "kko_0002.jpg": 1145926, "kko_0003.jpg": 1221194, "kko_0004.jpg": 1136567, "kko_0005.jpg": 1236960, "kko_0006.jpg": 1022352, "kko_0007.jpg": 1157896, "kko_0008.jpg": 1125699, ...
创建时间: 2019-12-09 00:57:35 大小:208.27 MB 文件数量:143 热度:6 最近下载:2025-04-04 17:55:01
    ... .txt": 689, "jimmy.fallon.2019.10.28.emma.thompson.720p.web.x264 ... .mkv": 831948134, "jimmy.fallon.2019.10.28.emma.thompson.720p.web.x264 ...
创建时间: 2019-12-09 02:02:19 大小:797.29 MB 文件数量:7 热度:3 最近下载:2023-12-28 01:14:05
    {"RARBG.txt": 30, "file_id.diz": 79, "gagball.nfo": 248, "model-bio_Nataly.txt": 97, "RARBG_DO_NOT_MIRROR.exe": 99, "RARBG.COM_XXX_BANNER.jpg": 517081, "_stunning-girl-with-a-hoop-cover.jpg": 87276, "stunning-girl-with-a-hoop-cover-clean.jpg": 62781, " ...
创建时间: 2019-12-09 03:48:54 大小:125.87 MB 文件数量:133 热度:10 最近下载:2025-06-24 20:47:01
    {"julesjordan.19.10.28.natalie.porkman.mp4": 447122208}
创建时间: 2019-12-09 04:12:13 大小:426.41 MB 文件数量:1 热度:10 最近下载:2025-07-31 08:42:03
    {"RARBG.txt": 30, "file_id.diz": 66, "gagball.nfo": 231, "RARBG_DO_NOT_MIRROR.exe": 99, "model-bio_Vasilisga.txt": 170, "RARBG.COM_XXX_BANNER.jpg": 517081, "_domai-vasilisga-3-cover.jpg": 274995, "domai-vasilisga-3-cover-clean.jpg": 274995, " ...
创建时间: 2019-12-09 06:59:13 大小:35.27 MB 文件数量:42 热度:4 最近下载:2025-01-20 07:40:03
    {"RARBG.txt": 30, "RARBG_DO_NOT_MIRROR.exe": 99, "The.One.Show.2019.10.28.720p.iP.WEB-DL.AAC2.0.H.264-BTW.mkv": 978972672}
创建时间: 2019-12-09 22:35:59 大小:933.62 MB 文件数量:3 热度:5 最近下载:2024-07-16 02:50:01
    {"Donate.url": 127, "Download 720p & 1080p HEVC porn [PornRips.to].url": 110, "BrazzersExxtra.19.10.28.Moriah.Mills.Cross-Training.For.Cock.XXX.720p.HEVC.x265.PRT.mp4": 383563026}
创建时间: 2019-12-10 00:21:14 大小:365.79 MB 文件数量:3 热度:19 最近下载:2025-05-22 19:32:02
    {"001.jpg": 8281868, "002.jpg": 5230981, "003.jpg": 5110060, "004.jpg": 4363729, "005.jpg": 5203236, "006.jpg": 4770006, "007.jpg": 7669671, "008.jpg": 4271723, "009.jpg": 3349210, "010.jpg": 4690887, "011.jpg": 5205344, "012.jpg": 6581693, "013.jpg": ...
创建时间: 2019-12-10 02:46:28 大小:382.02 MB 文件数量:82 热度:10 最近下载:2025-08-31 22:52:02
    {"Provided by torrentgalaxy.to .nfo": 690, "WildOnCam.19.10.28.Alita.Lee.Solo.XXX.720p.WEB.x264-GalaXXXy.mkv": 691299842}
创建时间: 2019-12-10 03:11:01 大小:659.28 MB 文件数量:2 热度:6 最近下载:2024-04-09 03:54:01
    {"PPV WWE - 2012.10.28 - Hell In A Cell 2012 ( ... ).aac": 169274296, "PPV WWE - 2012.10.28 - Hell In A Cell 2012 ... ).mp4": 1987176094, "PPV WWE - 2012.10.28 - Hell In A Cell 2012 ... ).aac": 26368708, "PPV WWE - 2012.10.28 - Hell In A Cell 2012 ...
创建时间: 2019-12-10 23:43:17 大小:2.31 GB 文件数量:4 热度:12 最近下载:2025-02-05 21:14:02
    {"brutalsessions.19.10.28.cadence.lux[XoX].mp4": 1587605897}
创建时间: 2019-12-11 06:06:41 大小:1.48 GB 文件数量:1 热度:14 最近下载:2024-06-07 09:50:02
    {"RARBG.com.txt": 34, "ktr.oc.12.10.28.kari.tabletop.masturbation.mp4": 534172987, "ktr.oc.12.10.28.kari.tabletop.masturbation.nfo": 6892}
创建时间: 2019-12-11 21:24:05 大小:509.43 MB 文件数量:3 热度:7 最近下载:2025-01-06 20:46:10
    {"RARBG.txt": 30, "file_id.diz": 94, "gagball.nfo": 263, "RARBG_DO_NOT_MIRROR.exe": 99, "RARBG.COM_XXX_BANNER.jpg": 517081, "model-bio_Alya-Stark.txt": 183, "model-bio_Kira-Queen.txt": 181, "_vivthomas-summer-lovers-cover.jpg": 110116, "vivthomas-summer- ...
创建时间: 2019-12-12 01:55:17 大小:588.28 MB 文件数量:139 热度:13 最近下载:2025-03-11 08:15:01
    ... -10-28 s2t07 Space.flac": 47142327, "gd85-10-28 s1t01 Sugaree.flac": 70220913, "gd85-10-28 ... -10-28 s1t06 Cassidy.flac": 43394652, "gd85-10-28 s2t08 Truckin'.flac": 50810906, "gd85-10-28 ...
创建时间: 2019-12-12 02:17:23 大小:988.35 MB 文件数量:26 热度:9 最近下载:2025-06-29 07:55:01
    {"Sample": {"atkgirlfriends.19.10.28.savannah.sixx-sample.mp4": 56711495}, "[XvX]endorsed by torrentgalaxy.to .nfo": 690, "atkgirlfriends.19.10.28.savannah.sixx.mp4": 2418518975}
创建时间: 2019-12-12 04:54:53 大小:2.31 GB 文件数量:3 热度:7 最近下载:2024-04-08 21:56:02